Culdrose, United Kingdom

3:57 PM GMT on December 14, 2017 (GMT +0000)
Culdrose Navy

Weather History for EGDR - May, 2013

Change the Weather History Date:

Monday, May 27, 2013

  Actual Average Record
Temperature  
Mean Temperature 50 °F -  
Max Temperature 53 °F 60 °F 63 °F (2012)
Min Temperature 44 °F 50 °F 43 °F (2014)
Degree Days  
Heating Degree Days 16    
Moisture  
Dew Point 47 °F    
Average Humidity 92    
Maximum Humidity 100    
Minimum Humidity 85    
Precipitation  
Precipitation 0.59 in - - ()
Sea Level Pressure  
Sea Level Pressure 29.72 in    
Wind  
Wind Speed 13 mph ()    
Max Wind Speed 21 mph    
Max Gust Speed 37 mph    
Visibility 5.8 miles    
Events Rain    
Averages and records for this station are not official NWS values.
T = Trace of Precipitation, MM = Missing Value Source: Averaged Metar Reports

Daily Weather History Graph

Daily Weather History Graph

Search for Another Location

Airport or City:

Trip Planner

Search our weather history database for the weather conditions in past years. The results will help you decide how hot, cold, wet, or windy it might be!

Date:

Astronomy

May. 27, 2013 Rise Set
Actual Time 5:20 AM BST 9:16 PM BST
Civil Twilight 4:38 AM BST 9:58 PM BST
Nautical Twilight 3:40 AM BST 10:57 PM BST
Astronomical Twilight 2:00 AM BST 12:41 AM BST
Moon 11:37 PM BST (5/27) 7:45 AM BST (5/27)
Length of Visible Light 17h 19m
Length of Day
15h 55m
Waning Gibbous, 92% of the Moon is Illuminated
May 27
Waning Gibbous
May 31
Last Quarter
Jun 8
New
Jun 16
First Quarter
Jun 23
Full

Hourly Weather History & Observations

Time (BST) Temp. Windchill Dew Point Humidity Pressure Visibility Wind Dir Wind Speed Gust Speed Precip Events Conditions
12:50 AM 47 °F - 45 °F 88% 29.99 in 12 mi SW 13.8 mph - -   Scattered Clouds
12:50 AM 48.2 °F - 44.6 °F 87% 29.98 in 6.2 mi SW 13.8 mph - N/A   Partly Cloudy
1:50 AM 48.2 °F - 44.6 °F 87% 29.95 in 6.2 mi SW 13.8 mph - N/A   Scattered Clouds
2:50 AM 48.2 °F - 44.6 °F 87% 29.92 in 6.2 mi SSW 15.0 mph - N/A   Scattered Clouds
3:50 AM 49 °F - 46 °F 86% 29.89 in 12 mi SW 11.5 mph - -   Mostly Cloudy
3:50 AM 50.0 °F - 46.4 °F 87% 29.89 in 6.2 mi SW 11.5 mph - N/A   Scattered Clouds
4:50 AM 48.2 °F - 46.4 °F 93% 29.83 in 6.2 mi SW 12.7 mph 24.2 mph N/A   Scattered Clouds
5:50 AM 50.0 °F - 46.4 °F 87% 29.83 in 6.2 mi SW 15.0 mph - N/A   Scattered Clouds
6:50 AM 50 °F - 47 °F 85% 29.82 in 12 mi SW 15.0 mph - -   Partly Cloudy
6:50 AM 50.0 °F - 46.4 °F 87% 29.80 in 6.2 mi SW 15.0 mph - N/A   Scattered Clouds
7:50 AM 51.8 °F - 48.2 °F 88% 29.77 in 6.2 mi SSW 16.1 mph - N/A   Scattered Clouds
8:50 AM 51.8 °F - 48.2 °F 88% 29.77 in 6.2 mi SSW 18.4 mph 29.9 mph N/A   Mostly Cloudy
9:50 AM 52 °F - 49 °F 85% 29.75 in 10 mi SSW 18.4 mph - -   Haze
9:50 AM 51.8 °F - 48.2 °F 88% 29.74 in 6.2 mi SSW 18.4 mph 31.1 mph N/A   Mostly Cloudy
10:50 AM 53.6 °F - 50.0 °F 88% 29.71 in 6.2 mi SSW 16.1 mph 28.8 mph N/A   Overcast
11:50 AM 51.8 °F - 48.2 °F 88% 29.68 in 3.7 mi SSW 18.4 mph 33.4 mph N/A Rain Light Rain
12:50 PM 51 °F - 49 °F 92% 29.68 in 3 mi SSW 19.6 mph - - Rain Light Rain
12:50 PM 50.0 °F - 50.0 °F 100% 29.65 in 2.8 mi SSW 19.6 mph 33.4 mph N/A Rain Light Rain
1:50 PM 50.0 °F - 50.0 °F 100% 29.65 in 2.2 mi SSW 17.3 mph 33.4 mph N/A Rain Light Rain
2:50 PM 50.0 °F - 50.0 °F 100% 29.62 in 1.9 mi SSW 19.6 mph 35.7 mph N/A Rain Rain
3:50 PM 50 °F - 49 °F 97% 29.60 in 2 mi SSW 20.7 mph - - Rain Rain
3:50 PM 50.0 °F - 50.0 °F 100% 29.59 in 1.6 mi SSW 20.7 mph 36.8 mph N/A Rain Rain
4:50 PM 48.2 °F - 48.2 °F 100% 29.59 in 2.5 mi WSW 8.1 mph - N/A Rain Rain
5:50 PM 48.2 °F - 46.4 °F 93% 29.59 in 3.1 mi WSW 9.2 mph - N/A Rain Light Rain
6:50 PM 47 °F - 46 °F 96% 29.60 in 3 mi WSW 10.4 mph - - Rain Light Rain
6:50 PM 46.4 °F 41.5 °F 46.4 °F 100% 29.59 in 3.1 mi WSW 10.4 mph - N/A Rain Light Rain
7:50 PM 48.2 °F - 46.4 °F 93% 29.56 in 6.2 mi West 4.6 mph - N/A   Mostly Cloudy
8:50 PM 48.2 °F - 46.4 °F 93% 29.56 in 6.2 mi West 8.1 mph - N/A   Scattered Clouds
9:50 PM 47 °F - 46 °F 93% 29.60 in 12 mi West 5.8 mph - -   Partly Cloudy
9:50 PM 48.2 °F - 46.4 °F 93% 29.59 in 6.2 mi West 5.8 mph - N/A   Scattered Clouds
10:50 PM 46.4 °F 43.5 °F 46.4 °F 100% 29.59 in 6.2 mi West 5.8 mph - N/A   Haze
11:50 PM 44.6 °F 41.4 °F 42.8 °F 93% 29.59 in 6.2 mi WNW 5.8 mph - N/A   Partly Cloudy